Погода в Пионерском

Россия / Самарская область     53°20′39″N   48°39′00″E
темп.,
°C
ветер,
м/с
пор.,
м/с
влажн.,
%
обл.,
%
осадки,
мм/ч
давл.,
гПа
погр.,
м
16 мая, вс
вс1601:00+18ююв22555 0.0 101818
04:00+17юв34565 0.0 101858
07:00+18юв38595 0.0 1018196
10:00+25ю583715 0.0 1018531
13:00+29ююз711275 0.0 10182134
16:00+30ююз6102689 0.0 10172127
19:00+27ююв22388 0.0 101615
22:00+22ююв225052 0.0 101711
17 мая, пн
пн1701:00+20юв225048 0.0 101717
04:00+18юв225641 0.0 101819
07:00+20юв375865 0.0 1018207
10:00+26ююв45426 0.0 1018428
13:00+31ю46295 0.0 10181698
16:00+31ю442397 0.0 10173402
19:00+27ю3440100 0.0 101756
22:00+21вюв224453 0.0 101819
18 мая, вт
вт1801:00+19юв114570 0.0 101811
04:00+17ююв124628 0.0 101811
07:00+20в12476 0.0 101878
10:00+26вюв353450 0.0 1018493
13:00+30юв45245 0.0 10171749
16:00+31вюв44215 0.0 10163413
19:00+26св47415 0.0 1016138
22:00+22всв45375 0.0 101667
19 мая, ср
ср1901:00+19св33375 0.0 101642
04:00+17св34685 0.0 101655
07:00+20в411705 0.0 1016366
10:00+25вюв685116 0.0 1015705
13:00+29вюв67385 0.0 10151512
16:00+30вюв683128 0.0 10143001
19:00+23в713591 0.0 1013312
22:00+23вюв716530 0.1 1013585
20 мая, чт
чт2001:00+18юв61583100 1.6 1014533
04:00+16юв51291100 1.8 1014384
07:00+18ююв358582 0.0 1015298
10:00+17ююв71081100 0.2 1016625
13:00+20юв7862100 0.9 10171287
16:00+23ююз6104127 1.4 10162399
19:00+20юз610516 0.0 1016625
22:00+15юз34690 0.0 101860